TimeEST,TemperatureF,Dew PointF,Humidity,Sea Level PressureIn,VisibilityMPH,Wind Direction,Wind SpeedMPH,Gust SpeedMPH,PrecipitationIn,Events,Conditions,WindDirDegrees,DateUTC
12:15 AM,41.0,32.0,70,30.46,10.0,NE,5.8,-,N/A,,Overcast,50,2013-01-28 05:15:00
12:35 AM,41.0,32.0,70,30.46,10.0,ENE,6.9,-,N/A,,Overcast,60,2013-01-28 05:35:00
12:55 AM,41.0,32.0,70,30.45,10.0,ENE,6.9,-,N/A,,Mostly Cloudy,60,2013-01-28 05:55:00
1:15 AM,41.0,32.0,70,30.44,10.0,NE,4.6,-,N/A,,Overcast,50,2013-01-28 06:15:00
1:35 AM,42.8,32.0,66,30.44,10.0,ENE,6.9,-,N/A,,Overcast,70,2013-01-28 06:35:00
1:55 AM,41.0,32.0,70,30.43,10.0,NE,3.5,-,N/A,,Scattered Clouds,50,2013-01-28 06:55:00
2:15 AM,41.0,33.8,76,30.43,10.0,ENE,3.5,-,N/A,,Mostly Cloudy,60,2013-01-28 07:15:00
2:35 AM,41.0,33.8,76,30.43,10.0,NE,3.5,-,N/A,,Overcast,40,2013-01-28 07:35:00
2:55 AM,41.0,33.8,76,30.43,10.0,NNE,3.5,-,N/A,,Mostly Cloudy,30,2013-01-28 07:55:00
3:15 AM,42.8,33.8,70,30.43,10.0,NE,3.5,-,N/A,,Overcast,50,2013-01-28 08:15:00
3:35 AM,42.8,33.8,70,30.43,10.0,ENE,3.5,-,N/A,,Overcast,60,2013-01-28 08:35:00
3:55 AM,41.0,33.8,76,30.42,10.0,NE,4.6,-,N/A,,Scattered Clouds,50,2013-01-28 08:55:00
4:15 AM,41.0,33.8,76,30.41,10.0,NE,5.8,-,N/A,,Scattered Clouds,40,2013-01-28 09:15:00
4:55 AM,42.8,33.8,70,30.42,10.0,NNE,4.6,-,N/A,,Overcast,30,2013-01-28 09:55:00
5:15 AM,42.8,33.8,70,30.42,10.0,NE,5.8,-,N/A,,Overcast,50,2013-01-28 10:15:00
5:35 AM,42.8,35.6,76,30.42,10.0,Calm,Calm,-,N/A,,Overcast,0,2013-01-28 10:35:00
5:55 AM,42.8,35.6,76,30.43,10.0,North,3.5,-,N/A,,Overcast,10,2013-01-28 10:55:00
6:15 AM,41.0,35.6,81,30.44,10.0,North,4.6,-,N/A,,Mostly Cloudy,360,2013-01-28 11:15:00
6:35 AM,41.0,35.6,81,30.44,10.0,NNE,3.5,-,N/A,,Scattered Clouds,20,2013-01-28 11:35:00
6:55 AM,41.0,35.6,81,30.44,10.0,NNE,3.5,-,N/A,,Overcast,30,2013-01-28 11:55:00
7:15 AM,41.0,33.8,76,30.44,10.0,NNE,4.6,-,N/A,,Overcast,30,2013-01-28 12:15:00
7:35 AM,42.8,33.8,70,30.45,10.0,NNE,4.6,-,N/A,,Overcast,30,2013-01-28 12:35:00
7:55 AM,42.8,33.8,70,30.45,10.0,Calm,Calm,-,N/A,,Overcast,0,2013-01-28 12:55:00
8:15 AM,42.8,35.6,76,30.45,10.0,NNE,4.6,-,N/A,,Overcast,30,2013-01-28 13:15:00
8:35 AM,42.8,35.6,76,30.45,10.0,NE,3.5,-,N/A,,Overcast,50,2013-01-28 13:35:00
8:55 AM,42.8,35.6,76,30.46,10.0,Calm,Calm,-,N/A,,Overcast,0,2013-01-28 13:55:00
9:15 AM,44.6,35.6,71,30.46,10.0,NNE,3.5,-,N/A,,Overcast,20,2013-01-28 14:15:00
9:35 AM,44.6,37.4,76,30.46,10.0,ENE,4.6,-,N/A,,Overcast,70,2013-01-28 14:35:00
9:55 AM,46.4,37.4,71,30.46,10.0,NNE,3.5,-,N/A,,Mostly Cloudy,30,2013-01-28 14:55:00
10:15 AM,46.4,37.4,71,30.45,10.0,Calm,Calm,-,N/A,,Mostly Cloudy,0,2013-01-28 15:15:00
10:35 AM,46.4,37.4,71,30.45,10.0,ENE,3.5,-,N/A,,Overcast,60,2013-01-28 15:35:00
10:55 AM,50.0,39.2,66,30.44,10.0,ENE,3.5,-,N/A,,Overcast,60,2013-01-28 15:55:00
11:15 AM,50.0,41.0,71,30.44,10.0,Calm,Calm,-,N/A,,Overcast,0,2013-01-28 16:15:00
11:55 AM,53.6,41.0,62,30.42,10.0,North,3.5,-,N/A,,Overcast,10,2013-01-28 16:55:00
12:15 PM,53.6,41.0,62,30.40,10.0,Calm,Calm,-,N/A,,Overcast,0,2013-01-28 17:15:00
12:35 PM,55.4,42.8,63,30.39,10.0,Calm,Calm,-,N/A,,Overcast,0,2013-01-28 17:35:00
12:55 PM,55.4,42.8,63,30.38,10.0,Calm,Calm,-,N/A,,Overcast,0,2013-01-28 17:55:00
1:15 PM,57.2,42.8,59,30.37,10.0,Calm,Calm,-,N/A,,Overcast,0,2013-01-28 18:15:00
1:35 PM,57.2,42.8,59,30.35,10.0,Calm,Calm,-,N/A,,Overcast,0,2013-01-28 18:35:00
1:55 PM,60.8,44.6,55,30.34,10.0,SE,3.5,-,N/A,,Mostly Cloudy,140,2013-01-28 18:55:00
2:15 PM,60.8,44.6,55,30.33,10.0,Calm,Calm,-,N/A,,Clear,0,2013-01-28 19:15:00
2:35 PM,62.6,46.4,55,30.32,10.0,SSW,3.5,-,N/A,,Clear,210,2013-01-28 19:35:00
2:55 PM,64.4,46.4,52,30.32,10.0,Calm,Calm,-,N/A,,Clear,0,2013-01-28 19:55:00
3:15 PM,64.4,46.4,52,30.32,10.0,SSE,3.5,-,N/A,,Clear,160,2013-01-28 20:15:00
3:35 PM,64.4,46.4,52,30.32,10.0,Calm,Calm,-,N/A,,Clear,0,2013-01-28 20:35:00
3:55 PM,66.2,48.2,52,30.31,10.0,Calm,Calm,-,N/A,,Clear,0,2013-01-28 20:55:00
4:15 PM,66.2,50.0,56,30.32,10.0,Calm,Calm,-,N/A,,Scattered Clouds,0,2013-01-28 21:15:00
4:35 PM,64.4,50.0,59,30.32,10.0,Calm,Calm,-,N/A,,Mostly Cloudy,0,2013-01-28 21:35:00
4:55 PM,64.4,48.2,56,30.32,10.0,Calm,Calm,-,N/A,,Overcast,0,2013-01-28 21:55:00
5:15 PM,64.4,50.0,59,30.32,10.0,Calm,Calm,-,N/A,,Overcast,0,2013-01-28 22:15:00
5:35 PM,64.4,50.0,59,30.32,10.0,Calm,Calm,-,N/A,,Mostly Cloudy,0,2013-01-28 22:35:00
5:55 PM,60.8,50.0,68,30.32,10.0,Calm,Calm,-,N/A,,Clear,0,2013-01-28 22:55:00
6:35 PM,57.2,51.8,82,30.32,10.0,Calm,Calm,-,N/A,,Clear,0,2013-01-28 23:35:00
6:55 PM,53.6,50.0,88,30.32,10.0,Calm,Calm,-,N/A,,Clear,0,2013-01-28 23:55:00
7:15 PM,53.6,50.0,88,30.32,10.0,Calm,Calm,-,N/A,,Clear,0,2013-01-29 00:15:00
7:35 PM,51.8,50.0,94,30.32,10.0,Calm,Calm,-,N/A,,Clear,0,2013-01-29 00:35:00
7:55 PM,51.8,50.0,94,30.32,10.0,Calm,Calm,-,N/A,,Clear,0,2013-01-29 00:55:00
8:15 PM,50.0,48.2,94,30.32,10.0,Calm,Calm,-,N/A,,Clear,0,2013-01-29 01:15:00
8:35 PM,50.0,50.0,100,30.31,10.0,Calm,Calm,-,N/A,,Clear,0,2013-01-29 01:35:00
8:55 PM,50.0,50.0,100,30.31,10.0,Calm,Calm,-,N/A,,Clear,0,2013-01-29 01:55:00
9:15 PM,50.0,50.0,100,30.31,7.0,Calm,Calm,-,N/A,,Clear,0,2013-01-29 02:15:00
9:35 PM,50.0,50.0,100,30.31,7.0,Calm,Calm,-,N/A,,Clear,0,2013-01-29 02:35:00
9:55 PM,50.0,50.0,100,30.30,10.0,SE,3.5,-,N/A,,Clear,130,2013-01-29 02:55:00
10:15 PM,51.8,51.8,100,30.31,7.0,Calm,Calm,-,N/A,,Clear,0,2013-01-29 03:15:00
10:35 PM,50.0,50.0,100,30.30,2.5,Calm,Calm,-,N/A,,Clear,0,2013-01-29 03:35:00
10:55 PM,50.0,50.0,100,30.30,0.5,Calm,Calm,-,N/A,Fog,Fog,0,2013-01-29 03:55:00
11:15 PM,48.2,48.2,100,30.30,0.2,Calm,Calm,-,N/A,Fog,Fog,0,2013-01-29 04:15:00
11:35 PM,46.4,46.4,100,30.30,0.2,Calm,Calm,-,N/A,Fog,Fog,0,2013-01-29 04:35:00
11:55 PM,46.4,46.4,100,30.29,0.2,Calm,Calm,-,N/A,Fog,Fog,0,2013-01-29 04:55:00